Location: ???????
(55.4362°N, 38.1183°E)
Time: 09:26:57
(UTC+00:00)

Oscar 11 - Pass Details

Date: 05 December 2021
Orbit: 611 x 625 km, 97.6° (Epoch: 25 January)

Event Time Altitude Azimuth Distance (km) Brightness Sun altitude
Rises 03:32:42 0° 12° (NNE) 2,924 10.5 -16.3°
Reaches altitude 10° 03:34:55 10° 9° (N) 2,011 9.6 -16.0°
Maximum altitude 03:39:14 60° 290° (WNW) 717 7.0 -15.4°
Drops below altitude 10° 03:43:30 10° 211° (SSW) 1,989 9.5 -14.8°
Sets 03:45:41 0° 208° (SSW) 2,888 10.4 -14.5°
